Preview of NWS' New Version of Forecast
This preview is not operational and should not be used for support decisions.

Regional Weather Roundup (RWR)

Issued by National Weather Service (NWS)

                            
000
ASUS46 KSEW 190210
RWRWA 

WASHINGTON REGIONAL WEATHER ROUNDUP
NATIONAL WEATHER SERVICE SEATTLE WA
700 PM PDT THU APR 18 2019

NOTE:"FAIR" INDICATES FEW OR NO CLOUDS BELOW 12,000 FEET WITH NO 
SIGNIFICANT WEATHER AND/OR OBSTRUCTIONS TO VISIBILITY.

WAZ507-509-555>559-190300-
SEATTLE, TACOMA, EVERETT, AND VICINITY
  
CITY           SKY/WX    TMP DP  RH WIND       PRES   REMARKS
EVERETT        CLOUDY    60  51  72 S13       30.07F                  
BOEING FIELD   CLOUDY    62  51  67 S3        30.07F                  
RENTON         CLOUDY    63  50  62 S5        30.07F                  
SEATAC AIRPORT CLOUDY    60  51  72 SW10      30.08F                  
JBLM-MCCHORD   CLOUDY    61  59  93 NW9       30.09S                  
PUYALLUP       CLOUDY    64  55  72 VRB3      30.09S                  
BREMERTON      CLOUDY    56  53  90 SW9       30.08F                  
JBLM-FT LEWIS  CLOUDY    60  59  97 W9        30.08F                  
TACOMA NARROWS CLOUDY    58  51  78 W5        30.10S                  
$$
 
WAZ001-503-506-510-514-515-190300-
NORTH INTERIOR
  
CITY           SKY/WX    TMP DP  RH WIND       PRES   REMARKS
BELLINGHAM     LGT RAIN  54  51  90 CALM      30.07F FOG              
FRIDAY HARBOR  LGT RAIN  54  51  90 CALM      30.08F FOG              
EASTSOUND      RAIN      54  54 100 S7        30.06F                  
PORT ANGELES   LGT RAIN  51  50  96 CALM      30.08F                  
EDIZ HOOK      DRIZZLE   49  49  97 W3        30.08S                  
PORT TOWNSEND  CLOUDY    54  52  94 W3        30.07S                  
NAS WHIDBEY    LGT RAIN  54  49  83 W3        30.10F                  
ARLINGTON      CLOUDY    61  51  70 S6        30.06F                  
BURLINGTON     CLOUDY    54  54 100 N10       30.08S FOG              
$$
 
WAZ020-022-039-040-504-511-512-190300-
SOUTHWEST INTERIOR
  
CITY           SKY/WX    TMP DP  RH WIND       PRES   REMARKS
SHELTON        LGT RAIN  56  52  86 SW14      30.09S FOG              
OLYMPIA        LGT RAIN  61  52  72 SW10      30.09S                  
CHEHALIS       LGT RAIN  63  57  82 N5        30.09S                  
KELSO          PTCLDY    64  46  52 W8        30.10S                  
VANCOUVER      PTCLDY    72  49  44 CALM      30.05F                  
SCAPPOOSE, OR  MOCLDY    75  52  44 CALM      30.05F                  
PORTLAND, OR   PTCLDY    72  48  42 NW5       30.05F                  
$$
 
WAZ021-516-517-190300-
WASHINGTON COAST
  
CITY           SKY/WX    TMP DP  RH WIND       PRES   REMARKS
FORKS          LGT RAIN  51  51 100 S8        30.08F VSB 3/4          
HOQUIAM        LGT RAIN  52  52 100 W6        30.12F FOG              
ASTORIA, OR    CLOUDY    56  50  80 W6        30.13S                  
$$
 
WAZ019-023-024-040-567>569-190300-
CASCADE MOUNTAINS AND COLUMBIA GORGE
  
CITY           SKY/WX    TMP DP  RH WIND       PRES   REMARKS
STAMPEDE PASS  CLOUDY    53  43  68 CALM      30.12F                  
TROUTDALE, OR  PTCLDY    72  52  49 E6        30.05F                  
HOOD RIVER, OR MOCLDY    72  46  40 MISG      30.04S                  
THE DALLES, OR CLEAR     76  51  41 W13       30.01F                  
$$

WAZ026-027-041>044-520-521-190300-
EAST SLOPES
  
CITY           SKY/WX    TMP DP  RH WIND       PRES   REMARKS
OMAK           CLOUDY    67  46  47 S12       29.99F                  
WENATCHEE      CLOUDY    65  48  54 NW9       30.02F                  
ELLENSBURG     PTCLDY    65  48  54 NW9       30.04F                  
YAKIMA         PTCLDY    75  47  36 E5        30.01F                  
SUNNYSIDE ARPT CLEAR     77  49  38 CALM      30.00F                  
YAKIMA TC      FAIR      71  46  41 CALM      30.01F                  
$$

WAZ028-034-035-190300-
COLUMBIA BASIN
  
CITY           SKY/WX    TMP DP  RH WIND       PRES   REMARKS
EPHRATA        PTCLDY    71  49  45 S7        30.01F                  
MOSES LAKE     PTCLDY    74  47  38 S9        30.02F                  
PASCO          CLEAR     80  47  31 S8        30.01F                  
RICHLAND ARPT  CLEAR     78  48  34 S6        30.01                   
HERMISTON, OR  PTCLDY    77  51  40 SE6       30.02F                  
$$

WAZ036>038-190300-
NORTHEAST WASHINGTON
  
CITY           SKY/WX    TMP DP  RH WIND       PRES   REMARKS
SPOKANE GEIGER MOCLDY    65  45  48 S8        30.08F                  
SPOKANE FELTS  MOCLDY    67  45  45 SW8       30.08F                  
FAIRCHILD AFB  CLOUDY    63  48  58 S8        30.08F                  
COEURDALENE,ID MOCLDY    62  48  60 SW9       30.09F                  
DEER PARK      CLOUDY    60  43  53 NE5       30.08F                  
$$

WAZ029>033-190300-
SOUTHEAST WASHINGTON
  
CITY           SKY/WX    TMP DP  RH WIND       PRES   REMARKS
PULLMAN        MOCLDY    65  46  50 W6        30.13F                  
LEWISTON, ID   CLEAR     72  46  39 S3        30.07F                  
WALLA WALLA    PTCLDY    74  49  41 E3        30.05F                  
PENDLETON, OR  MOCLDY    72  50  45 NE3       30.05F                  
$$